| time (UTC) | temp C | wind direction | speed KPH | gust KPH | rain 1hr cm | rain 24hr cm | rain mn cm | humidity % | barometer mb |
| 20260507222216 | 11 | 111 | 0.0 | 3.2 | 0.00 | 0.00 | 0.00 | 85 | 1016.7 |
| 20260507212215 | 11 | 126 | 0.0 | 3.2 | 0.00 | 0.00 | 0.00 | 84 | 1016.7 |
| 20260507202214 | 11 | 134 | 0.0 | 3.2 | 0.00 | 0.00 | 0.00 | 83 | 1016.3 |
| 20260507192211 | 12 | 184 | 0.0 | 6.4 | 0.00 | 0.00 | 0.00 | 77 | 1016.0 |
| 20260507182212 | 12 | 173 | 0.0 | 11.3 | 0.00 | 0.00 | 0.00 | 79 | 1015.9 |
| 20260507172212 | 13 | 180 | 1.6 | 9.7 | 0.00 | 0.00 | 0.00 | 71 | 1015.6 |
| 20260507162209 | 14 | 164 | 1.6 | 9.7 | 0.00 | 0.00 | 0.00 | 68 | 1015.8 |
| 20260507152206 | 14 | 120 | 1.6 | 11.3 | 0.00 | 0.00 | 0.00 | 69 | 1015.8 |
| 20260507142205 | 14 | 92 | 1.6 | 9.7 | 0.00 | 0.00 | 0.00 | 67 | 1015.9 |
| 20260507132206 | 13 | 137 | 1.6 | 9.7 | 0.00 | 0.00 | 0.00 | 67 | 1016.1 |
| 20260507122205 | 14 | 190 | 1.6 | 9.7 | 0.00 | 0.00 | 0.00 | 69 | 1016.3 |
| 20260507112204 | 13 | 138 | 1.6 | 8.0 | 0.00 | 0.00 | 0.00 | 70 | 1016.4 |
| 20260507102203 | 12 | 181 | 0.0 | 9.7 | 0.00 | 0.00 | 0.00 | 70 | 1016.6 |
| 20260507092204 | 11 | 46 | 1.6 | 9.7 | 0.00 | 0.00 | 0.00 | 77 | 1016.5 |
| 20260507082202 | 11 | 51 | 1.6 | 9.7 | 0.00 | 0.00 | 0.00 | 82 | 1016.4 |
| 20260507072201 | 10 | 42 | 1.6 | 6.4 | 0.00 | 0.00 | 0.00 | 85 | 1016.2 |
| 20260507062201 | 9 | 43 | 0.0 | 3.2 | 0.00 | 0.00 | 0.00 | 87 | 1016.1 |
| 20260507052207 | 8 | 43 | 0.0 | 6.4 | 0.00 | 0.00 | 0.00 | 88 | 1015.7 |
| 20260507042157 | 8 | 43 | 1.6 | 6.4 | 0.00 | 0.00 | 0.00 | 88 | 1015.3 |
| 20260507032157 | 8 | 43 | 1.6 | 8.0 | 0.00 | 0.00 | 0.00 | 88 | 1015.3 |
| 20260507022155 | 8 | 41 | 1.6 | 6.4 | 0.00 | 0.00 | 0.00 | 88 | 1015.1 |
| 20260507012155 | 9 | 40 | 0.0 | 6.4 | 0.00 | 0.00 | 0.00 | 86 | 1014.9 |
| 20260507002155 | 9 | 46 | 1.6 | 6.4 | 0.00 | 0.00 | 0.00 | 87 | 1014.9 |
| 20260506232155 | 10 | 49 | 1.6 | 8.0 | 0.00 | 0.00 | 0.00 | 86 | 1014.8 |